| time (UTC) | temp C | wind direction | speed KPH | gust KPH | rain 1hr cm | rain 24hr cm | rain mn cm | humidity % | barometer mb |
| 20260507000321 | 15 | 182 | 0.0 | 1.6 | 0.00 | 0.38 | 0.38 | 93 | 1007.4 |
| 20260506235818 | 15 | 223 | 3.2 | 3.2 | 0.00 | 0.38 | 0.38 | 93 | 1007.2 |
| 20260506235314 | 15 | 223 | 3.2 | 3.2 | 0.00 | 0.38 | 0.38 | 93 | 1007.2 |
| 20260506234811 | 15 | 223 | 3.2 | 3.2 | 0.00 | 0.38 | 0.38 | 93 | 1007.3 |
| 20260506234308 | 15 | 223 | 3.2 | 3.2 | 0.00 | 0.38 | 0.38 | 93 | 1007.2 |
| 20260506233806 | 15 | 223 | 3.2 | 3.2 | 0.00 | 0.38 | 0.38 | 93 | 1007.2 |
| 20260506233302 | 15 | 223 | 3.2 | 3.2 | 0.00 | 0.38 | 0.38 | 93 | 1007.0 |
| 20260506232759 | 15 | 223 | 3.2 | 3.2 | 0.00 | 0.38 | 0.38 | 93 | 1007.0 |
| 20260506232254 | 15 | 233 | 0.0 | 3.2 | 0.00 | 0.38 | 0.38 | 93 | 1006.8 |
| 20260506231751 | 15 | 208 | 1.6 | 3.2 | 0.00 | 0.38 | 0.38 | 93 | 1006.8 |
| 20260506231250 | 15 | 208 | 1.6 | 3.2 | 0.00 | 0.38 | 0.38 | 93 | 1006.6 |
| 20260506230746 | 15 | 170 | 3.2 | 3.2 | 0.00 | 0.38 | 0.38 | 93 | 1006.6 |
| 20260506230243 | 15 | 170 | 3.2 | 3.2 | 0.00 | 0.38 | 0.38 | 93 | 1006.6 |
| 20260506225739 | 15 | 227 | 1.6 | 1.6 | 0.00 | 0.38 | 0.38 | 93 | 1006.5 |
| 20260506225237 | 15 | 126 | 3.2 | 3.2 | 0.00 | 0.38 | 0.38 | 93 | 1006.6 |
| 20260506224732 | 15 | 193 | 1.6 | 3.2 | 0.00 | 0.38 | 0.38 | 93 | 1006.7 |
| 20260506224230 | 15 | 197 | 0.0 | 0.0 | 0.00 | 0.38 | 0.38 | 93 | 1006.6 |
| 20260506223726 | 15 | 253 | 0.0 | 0.0 | 0.00 | 0.38 | 0.38 | 93 | 1006.5 |
| 20260506223222 | 15 | 194 | 1.6 | 3.2 | 0.13 | 0.38 | 0.38 | 93 | 1006.6 |
| 20260506222719 | 15 | 193 | 3.2 | 4.8 | 0.13 | 0.38 | 0.38 | 93 | 1006.4 |
| 20260506222215 | 15 | 242 | 0.0 | 0.0 | 0.00 | 0.36 | 0.36 | 93 | 1006.6 |
| 20260506221713 | 15 | 171 | 0.0 | 0.0 | 0.00 | 0.36 | 0.36 | 93 | 1006.7 |
| 20260506221211 | 15 | 212 | 0.0 | 0.0 | 0.00 | 0.36 | 0.36 | 93 | 1006.5 |
| 20260506220708 | 15 | 170 | 0.0 | 0.0 | 0.30 | 0.36 | 0.36 | 93 | 1006.6 |
| 20260506220202 | 15 | 167 | 1.6 | 3.2 | 0.30 | 0.36 | 0.36 | 93 | 1006.7 |
| 20260506215659 | 15 | 283 | 0.0 | 1.6 | 0.00 | 0.30 | 0.30 | 93 | 1006.5 |
| 20260506215154 | 15 | 283 | 0.0 | 1.6 | 0.18 | 0.30 | 0.30 | 93 | 1006.7 |
| 20260506214652 | 15 | 283 | 0.0 | 1.6 | 0.18 | 0.30 | 0.30 | 93 | 1006.7 |
| 20260506214149 | 15 | 171 | 1.6 | 1.6 | 0.00 | 0.28 | 0.28 | 92 | 1006.5 |
| 20260506213647 | 15 | 169 | 1.6 | 3.2 | 0.00 | 0.28 | 0.28 | 92 | 1006.6 |
| 20260506213144 | 15 | 222 | 1.6 | 3.2 | 0.00 | 0.28 | 0.28 | 93 | 1006.7 |
| 20260506212641 | 15 | 220 | 3.2 | 3.2 | 0.00 | 0.28 | 0.28 | 92 | 1006.7 |
| 20260506212136 | 15 | 161 | 3.2 | 3.2 | 0.00 | 0.28 | 0.28 | 93 | 1006.8 |
| 20260506211632 | 15 | 159 | 1.6 | 3.2 | 0.00 | 0.28 | 0.28 | 93 | 1006.6 |
| 20260506211129 | 15 | 215 | 1.6 | 3.2 | 0.00 | 0.28 | 0.28 | 93 | 1006.7 |
| 20260506210626 | 15 | 156 | 4.8 | 6.4 | 0.00 | 0.28 | 0.28 | 92 | 1006.7 |
| 20260506210122 | 15 | 201 | 3.2 | 3.2 | 0.00 | 0.28 | 0.28 | 93 | 1006.9 |
| 20260506205619 | 15 | 179 | 1.6 | 3.2 | 0.00 | 0.28 | 0.28 | 93 | 1006.9 |
| 20260506205114 | 15 | 165 | 4.8 | 4.8 | 0.00 | 0.28 | 0.28 | 93 | 1007.0 |
| 20260506204612 | 15 | 158 | 1.6 | 3.2 | 0.13 | 0.28 | 0.28 | 92 | 1007.1 |
| 20260506204109 | 15 | 167 | 3.2 | 3.2 | 0.30 | 0.28 | 0.28 | 92 | 1007.2 |
| 20260506203608 | 15 | 202 | 1.6 | 3.2 | 0.18 | 0.25 | 0.25 | 92 | 1007.1 |
| 20260506203103 | 15 | 202 | 1.6 | 3.2 | 0.00 | 0.23 | 0.23 | 92 | 1007.2 |
| 20260506202602 | 15 | 139 | 0.0 | 3.2 | 0.13 | 0.23 | 0.23 | 92 | 1007.0 |
| 20260506202057 | 15 | 184 | 3.2 | 3.2 | 0.13 | 0.23 | 0.23 | 91 | 1007.1 |
| 20260506201555 | 15 | 271 | 0.0 | 0.0 | 0.00 | 0.20 | 0.20 | 91 | 1007.3 |
| 20260506201052 | 15 | 168 | 3.2 | 3.2 | 0.18 | 0.20 | 0.20 | 91 | 1007.2 |
| 20260506200548 | 15 | 273 | 1.6 | 3.2 | 0.18 | 0.20 | 0.20 | 91 | 1007.3 |
| 20260506200045 | 15 | 180 | 0.0 | 3.2 | 0.00 | 0.18 | 0.18 | 91 | 1007.4 |
| 20260506195541 | 15 | 201 | 0.0 | 3.2 | 0.00 | 0.18 | 0.18 | 91 | 1007.4 |
| 20260506195038 | 15 | 259 | 0.0 | 3.2 | 0.00 | 0.18 | 0.18 | 91 | 1007.4 |
| 20260506194536 | 15 | 202 | 1.6 | 4.8 | 0.00 | 0.18 | 0.18 | 90 | 1007.6 |
| 20260506194032 | 15 | 224 | 1.6 | 3.2 | 0.00 | 0.18 | 0.18 | 91 | 1007.4 |
| 20260506193529 | 15 | 168 | 3.2 | 3.2 | 0.00 | 0.18 | 0.18 | 91 | 1007.5 |
| 20260506193026 | 15 | 166 | 1.6 | 3.2 | 0.00 | 0.18 | 0.18 | 91 | 1007.5 |
| 20260506192523 | 15 | 152 | 1.6 | 4.8 | 0.00 | 0.18 | 0.18 | 91 | 1007.7 |
| 20260506192019 | 15 | 200 | 3.2 | 3.2 | 0.00 | 0.18 | 0.18 | 90 | 1007.6 |
| 20260506191516 | 15 | 256 | 3.2 | 4.8 | 0.00 | 0.18 | 0.18 | 90 | 1007.7 |
| 20260506191012 | 15 | 176 | 4.8 | 9.7 | 0.00 | 0.18 | 0.18 | 90 | 1007.7 |
| 20260506190509 | 15 | 179 | 1.6 | 3.2 | 0.00 | 0.18 | 0.18 | 90 | 1007.8 |
| 20260506190006 | 15 | 186 | 1.6 | 4.8 | 0.30 | 0.18 | 0.18 | 90 | 1007.7 |
| 20260506185504 | 15 | 210 | 4.8 | 6.4 | 0.30 | 0.18 | 0.18 | 90 | 1007.9 |
| 20260506185000 | 15 | 215 | 1.6 | 3.2 | 0.00 | 0.13 | 0.13 | 89 | 1007.9 |
| 20260506184457 | 15 | 215 | 1.6 | 3.2 | 0.00 | 0.13 | 0.13 | 89 | 1008.2 |
| 20260506183954 | 15 | 215 | 1.6 | 3.2 | 0.13 | 0.13 | 0.13 | 89 | 1007.7 |
| 20260506183449 | 15 | 171 | 3.2 | 3.2 | 0.13 | 0.13 | 0.13 | 89 | 1008.0 |
| 20260506182947 | 15 | 156 | 1.6 | 4.8 | 0.30 | 0.13 | 0.13 | 89 | 1007.9 |
| 20260506182444 | 15 | 165 | 0.0 | 3.2 | 0.18 | 0.10 | 0.10 | 89 | 1008.1 |
| 20260506181941 | 15 | 217 | 3.2 | 3.2 | 0.00 | 0.08 | 0.08 | 89 | 1008.0 |
| 20260506181439 | 15 | 200 | 1.6 | 3.2 | 0.00 | 0.08 | 0.08 | 89 | 1008.1 |
| 20260506180936 | 15 | 203 | 0.0 | 6.4 | 0.18 | 0.08 | 0.08 | 88 | 1007.8 |
| 20260506180432 | 15 | 185 | 3.2 | 4.8 | 0.18 | 0.08 | 0.08 | 89 | 1007.8 |
| 20260506175929 | 15 | 173 | 1.6 | 3.2 | 0.00 | 0.05 | 0.05 | 89 | 1008.0 |
| 20260506175426 | 15 | 167 | 3.2 | 3.2 | 0.13 | 0.05 | 0.05 | 88 | 1008.1 |
| 20260506174922 | 15 | 174 | 6.4 | 6.4 | 0.13 | 0.05 | 0.05 | 88 | 1008.0 |
| 20260506174420 | 16 | 190 | 3.2 | 9.7 | 0.00 | 0.03 | 0.03 | 87 | 1008.4 |
| 20260506173917 | 16 | 175 | 3.2 | 3.2 | 0.18 | 0.03 | 0.03 | 86 | 1008.7 |
| 20260506173414 | 16 | 154 | 1.6 | 4.8 | 0.18 | 0.03 | 0.03 | 85 | 1008.4 |
| 20260506172911 | 16 | 180 | 4.8 | 4.8 | 0.00 | 0.00 | 0.00 | 84 | 1008.7 |
| 20260506172408 | 16 | 157 | 1.6 | 3.2 | 0.00 | 0.00 | 0.00 | 82 | 1009.1 |
| 20260506171905 | 16 | 226 | 4.8 | 4.8 | 0.00 | 0.00 | 0.00 | 80 | 1008.8 |
| 20260506171402 | 17 | 170 | 4.8 | 4.8 | 0.00 | 0.00 | 0.00 | 79 | 1009.0 |
| 20260506170900 | 17 | 180 | 1.6 | 4.8 | 0.00 | 0.00 | 0.00 | 77 | 1009.2 |
| 20260506170356 | 17 | 194 | 3.2 | 6.4 | 0.00 | 0.00 | 0.00 | 75 | 1009.2 |
| 20260506165855 | 17 | 325 | 3.2 | 6.4 | 0.00 | 0.00 | 0.00 | 73 | 1009.3 |
| 20260506165353 | 18 | 167 | 3.2 | 6.4 | 0.00 | 0.00 | 0.00 | 72 | 1009.2 |
| 20260506164849 | 18 | 171 | 1.6 | 6.4 | 0.00 | 0.00 | 0.00 | 71 | 1009.1 |
| 20260506164345 | 18 | 227 | 3.2 | 4.8 | 0.00 | 0.00 | 0.00 | 71 | 1009.2 |
| 20260506163843 | 18 | 163 | 1.6 | 3.2 | 0.00 | 0.00 | 0.00 | 71 | 1009.2 |
| 20260506163338 | 18 | 202 | 3.2 | 4.8 | 0.00 | 0.00 | 0.00 | 70 | 1009.0 |
| 20260506162833 | 18 | 176 | 6.4 | 9.7 | 0.00 | 0.00 | 0.00 | 68 | 1008.9 |
| 20260506162331 | 19 | 253 | 4.8 | 4.8 | 0.00 | 0.00 | 0.00 | 68 | 1008.8 |
| 20260506161829 | 19 | 234 | 3.2 | 9.7 | 0.00 | 0.00 | 0.00 | 68 | 1008.7 |
| 20260506161326 | 20 | 154 | 3.2 | 4.8 | 0.00 | 0.00 | 0.00 | 67 | 1008.8 |
| 20260506160823 | 20 | 161 | 6.4 | 6.4 | 0.00 | 0.00 | 0.00 | 66 | 1009.1 |
| 20260506160319 | 19 | 245 | 3.2 | 4.8 | 0.00 | 0.00 | 0.00 | 67 | 1009.0 |
| 20260506155819 | 19 | 245 | 3.2 | 4.8 | 0.00 | 0.00 | 0.00 | 67 | 1009.2 |
| 20260506155315 | 19 | 159 | 6.4 | 6.4 | 0.00 | 0.00 | 0.00 | 67 | 1009.2 |
| 20260506153427 | 20 | 179 | 1.6 | 3.2 | 0.00 | 0.00 | 0.00 | 66 | 1009.2 |
| 20260506152925 | 20 | 3 | 1.6 | 1.6 | 0.00 | 0.00 | 0.00 | 66 | 1009.4 |
| 20260506152421 | 19 | 177 | 0.0 | 4.8 | 0.00 | 0.00 | 0.00 | 67 | 1009.3 |
| 20260506151920 | 19 | 313 | 1.6 | 4.8 | 0.00 | 0.00 | 0.00 | 67 | 1009.4 |
| 20260506151416 | 19 | 198 | 1.6 | 1.6 | 0.00 | 0.00 | 0.00 | 68 | 1009.4 |
| 20260506150914 | 19 | 324 | 3.2 | 3.2 | 0.00 | 0.00 | 0.00 | 67 | 1009.3 |
| 20260506150410 | 19 | 152 | 6.4 | 9.7 | 0.00 | 0.00 | 0.00 | 67 | 1009.6 |
| 20260506145907 | 18 | 190 | 0.0 | 1.6 | 0.00 | 0.00 | 0.00 | 68 | 1009.5 |
| 20260506145403 | 18 | 204 | 1.6 | 3.2 | 0.00 | 0.00 | 0.00 | 69 | 1009.5 |
| 20260506144901 | 18 | 169 | 4.8 | 4.8 | 0.00 | 0.00 | 0.00 | 69 | 1009.6 |
| 20260506144357 | 18 | 193 | 1.6 | 3.2 | 0.00 | 0.00 | 0.00 | 69 | 1009.5 |
| 20260506143856 | 18 | 193 | 1.6 | 4.8 | 0.00 | 0.00 | 0.00 | 68 | 1009.7 |
| 20260506143352 | 18 | 137 | 0.0 | 0.0 | 0.00 | 0.00 | 0.00 | 69 | 1009.8 |
| 20260506142851 | 18 | 126 | 3.2 | 4.8 | 0.00 | 0.00 | 0.00 | 69 | 1009.7 |
| 20260506142348 | 19 | 135 | 0.0 | 0.0 | 0.00 | 0.00 | 0.00 | 69 | 1010.0 |
| 20260506141846 | 18 | 165 | 3.2 | 3.2 | 0.00 | 0.00 | 0.00 | 69 | 1009.9 |
| 20260506141344 | 18 | 221 | 3.2 | 3.2 | 0.00 | 0.00 | 0.00 | 71 | 1009.9 |
| 20260506140842 | 18 | 176 | 3.2 | 4.8 | 0.00 | 0.00 | 0.00 | 71 | 1009.9 |
| 20260506140339 | 18 | 176 | 3.2 | 6.4 | 0.00 | 0.00 | 0.00 | 72 | 1009.8 |
| 20260506135836 | 18 | 299 | 0.0 | 1.6 | 0.00 | 0.00 | 0.00 | 72 | 1010.0 |
| 20260506135332 | 17 | 313 | 1.6 | 4.8 | 0.00 | 0.00 | 0.00 | 72 | 1009.7 |
| 20260506134829 | 17 | 224 | 3.2 | 4.8 | 0.00 | 0.00 | 0.00 | 72 | 1009.7 |
| 20260506134325 | 17 | 191 | 3.2 | 4.8 | 0.00 | 0.00 | 0.00 | 73 | 1009.8 |
| 20260506133822 | 17 | 176 | 4.8 | 6.4 | 0.00 | 0.00 | 0.00 | 73 | 1009.7 |
| 20260506133319 | 17 | 150 | 3.2 | 6.4 | 0.00 | 0.00 | 0.00 | 74 | 1009.6 |
| 20260506132816 | 17 | 254 | 1.6 | 3.2 | 0.00 | 0.00 | 0.00 | 74 | 1009.6 |
| 20260506132313 | 17 | 210 | 3.2 | 4.8 | 0.00 | 0.00 | 0.00 | 74 | 1009.8 |
| 20260506131811 | 17 | 198 | 1.6 | 3.2 | 0.00 | 0.00 | 0.00 | 74 | 1009.9 |
| 20260506131307 | 17 | 30 | 3.2 | 4.8 | 0.00 | 0.00 | 0.00 | 74 | 1009.8 |
| 20260506130804 | 17 | 200 | 3.2 | 3.2 | 0.00 | 0.00 | 0.00 | 75 | 1009.9 |
| 20260506130300 | 16 | 222 | 4.8 | 9.7 | 0.00 | 0.00 | 0.00 | 76 | 1010.1 |
| 20260506125759 | 16 | 349 | 3.2 | 4.8 | 0.00 | 0.00 | 0.00 | 76 | 1010.0 |
| 20260506125256 | 16 | 167 | 1.6 | 4.8 | 0.00 | 0.00 | 0.00 | 75 | 1010.0 |
| 20260506124754 | 16 | 199 | 1.6 | 1.6 | 0.00 | 0.00 | 0.00 | 76 | 1010.1 |
| 20260506124252 | 16 | 143 | 1.6 | 3.2 | 0.00 | 0.00 | 0.00 | 76 | 1010.4 |
| 20260506123749 | 16 | 155 | 1.6 | 1.6 | 0.00 | 0.00 | 0.00 | 76 | 1010.4 |
| 20260506123248 | 16 | 177 | 4.8 | 6.4 | 0.00 | 0.00 | 0.00 | 76 | 1010.4 |
| 20260506122744 | 16 | 225 | 0.0 | 1.6 | 0.00 | 0.00 | 0.00 | 76 | 1010.5 |
| 20260506122241 | 16 | 180 | 6.4 | 9.7 | 0.00 | 0.00 | 0.00 | 76 | 1010.3 |
| 20260506121739 | 16 | 193 | 1.6 | 4.8 | 0.00 | 0.00 | 0.00 | 76 | 1010.5 |
| 20260506121236 | 16 | 179 | 3.2 | 3.2 | 0.00 | 0.00 | 0.00 | 78 | 1010.3 |
| 20260506120733 | 16 | 180 | 1.6 | 6.4 | 0.00 | 0.00 | 0.00 | 78 | 1010.1 |
| 20260506120231 | 16 | 188 | 0.0 | 3.2 | 0.00 | 0.00 | 0.00 | 78 | 1010.3 |
| 20260506115729 | 16 | 191 | 0.0 | 1.6 | 0.00 | 0.00 | 0.00 | 78 | 1010.3 |
| 20260506115227 | 16 | 207 | 4.8 | 4.8 | 0.00 | 0.00 | 0.00 | 78 | 1010.4 |
| 20260506114724 | 15 | 186 | 4.8 | 4.8 | 0.00 | 0.00 | 0.00 | 79 | 1010.1 |
| 20260506114221 | 15 | 194 | 1.6 | 3.2 | 0.00 | 0.00 | 0.00 | 79 | 1010.5 |
| 20260506113720 | 15 | 146 | 1.6 | 4.8 | 0.00 | 0.00 | 0.00 | 79 | 1010.4 |
| 20260506113217 | 15 | 202 | 3.2 | 6.4 | 0.00 | 0.00 | 0.00 | 79 | 1010.5 |
| 20260506112713 | 15 | 219 | 0.0 | 4.8 | 0.00 | 0.00 | 0.00 | 79 | 1010.2 |
| 20260506112211 | 15 | 166 | 3.2 | 4.8 | 0.00 | 0.00 | 0.00 | 79 | 1010.3 |
| 20260506111708 | 15 | 211 | 0.0 | 4.8 | 0.00 | 0.00 | 0.00 | 81 | 1010.5 |
| 20260506111206 | 15 | 184 | 3.2 | 4.8 | 0.00 | 0.00 | 0.00 | 81 | 1010.7 |
| 20260506110703 | 15 | 205 | 4.8 | 4.8 | 0.00 | 0.00 | 0.00 | 81 | 1010.6 |
| 20260506110200 | 15 | 303 | 0.0 | 1.6 | 0.00 | 0.00 | 0.00 | 82 | 1010.7 |
| 20260506105657 | 14 | 152 | 1.6 | 3.2 | 0.00 | 0.00 | 0.00 | 83 | 1010.5 |
| 20260506105154 | 14 | 193 | 1.6 | 4.8 | 0.00 | 0.00 | 0.00 | 83 | 1010.4 |
| 20260506104652 | 14 | 238 | 0.0 | 4.8 | 0.00 | 0.00 | 0.00 | 83 | 1010.7 |
| 20260506104149 | 14 | 208 | 0.0 | 1.6 | 0.00 | 0.00 | 0.00 | 83 | 1010.8 |
| 20260506103646 | 14 | 181 | 1.6 | 3.2 | 0.00 | 0.00 | 0.00 | 83 | 1010.6 |
| 20260506103143 | 14 | 205 | 0.0 | 3.2 | 0.00 | 0.00 | 0.00 | 83 | 1010.5 |
| 20260506102641 | 14 | 201 | 0.0 | 3.2 | 0.00 | 0.00 | 0.00 | 83 | 1010.5 |
| 20260506102138 | 14 | 177 | 3.2 | 4.8 | 0.00 | 0.00 | 0.00 | 83 | 1010.2 |
| 20260506101635 | 13 | 248 | 0.0 | 3.2 | 0.00 | 0.00 | 0.00 | 84 | 1010.3 |
| 20260506101132 | 13 | 181 | 0.0 | 1.6 | 0.00 | 0.00 | 0.00 | 84 | 1010.2 |
| 20260506100631 | 13 | 187 | 1.6 | 1.6 | 0.00 | 0.00 | 0.00 | 83 | 1010.6 |
| 20260506100128 | 13 | 225 | 3.2 | 4.8 | 0.00 | 0.00 | 0.00 | 83 | 1010.2 |
| 20260506095627 | 13 | 182 | 0.0 | 4.8 | 0.00 | 0.00 | 0.00 | 84 | 1010.3 |
| 20260506095123 | 13 | 226 | 1.6 | 3.2 | 0.00 | 0.00 | 0.00 | 83 | 1010.3 |
| 20260506094620 | 13 | 168 | 1.6 | 1.6 | 0.00 | 0.00 | 0.00 | 83 | 1010.2 |
| 20260506094118 | 13 | 182 | 1.6 | 1.6 | 0.00 | 0.00 | 0.00 | 83 | 1010.2 |
| 20260506093616 | 13 | 183 | 0.0 | 3.2 | 0.00 | 0.00 | 0.00 | 83 | 1010.3 |
| 20260506093113 | 13 | 196 | 1.6 | 3.2 | 0.00 | 0.00 | 0.00 | 83 | 1010.3 |
| 20260506092611 | 13 | 216 | 1.6 | 6.4 | 0.00 | 0.00 | 0.00 | 82 | 1010.2 |
| 20260506092108 | 13 | 161 | 3.2 | 3.2 | 0.00 | 0.00 | 0.00 | 82 | 1010.2 |
| 20260506091606 | 14 | 267 | 0.0 | 3.2 | 0.00 | 0.00 | 0.00 | 82 | 1010.2 |
| 20260506091103 | 13 | 181 | 1.6 | 3.2 | 0.00 | 0.00 | 0.00 | 82 | 1010.3 |
| 20260506090601 | 13 | 180 | 0.0 | 1.6 | 0.00 | 0.00 | 0.00 | 82 | 1010.3 |
| 20260506090057 | 14 | 206 | 0.0 | 3.2 | 0.00 | 0.00 | 0.00 | 81 | 1010.2 |
| 20260506085554 | 14 | 202 | 1.6 | 3.2 | 0.00 | 0.00 | 0.00 | 81 | 1010.3 |
| 20260506085050 | 14 | 171 | 4.8 | 4.8 | 0.00 | 0.00 | 0.00 | 81 | 1010.2 |
| 20260506084547 | 14 | 196 | 0.0 | 3.2 | 0.00 | 0.00 | 0.00 | 81 | 1010.1 |
| 20260506084043 | 14 | 185 | 0.0 | 3.2 | 0.00 | 0.00 | 0.00 | 81 | 1010.5 |
| 20260506083541 | 14 | 188 | 0.0 | 1.6 | 0.00 | 0.00 | 0.00 | 80 | 1010.3 |
| 20260506083038 | 14 | 165 | 3.2 | 3.2 | 0.00 | 0.00 | 0.00 | 80 | 1010.5 |
| 20260506082535 | 14 | 187 | 1.6 | 3.2 | 0.00 | 0.00 | 0.00 | 80 | 1010.3 |
| 20260506082030 | 14 | 202 | 1.6 | 1.6 | 0.00 | 0.00 | 0.00 | 80 | 1010.5 |
| 20260506081529 | 14 | 185 | 1.6 | 3.2 | 0.00 | 0.00 | 0.00 | 80 | 1010.4 |
| 20260506081026 | 15 | 166 | 3.2 | 3.2 | 0.00 | 0.00 | 0.00 | 79 | 1010.2 |
| 20260506080523 | 15 | 174 | 1.6 | 4.8 | 0.00 | 0.00 | 0.00 | 79 | 1010.2 |
| 20260506073507 | 15 | 209 | 0.0 | 6.4 | 0.00 | 0.00 | 0.00 | 79 | 1010.4 |
| 20260506073004 | 15 | 184 | 1.6 | 6.4 | 0.00 | 0.00 | 0.00 | 79 | 1010.3 |
| 20260506072501 | 15 | 170 | 1.6 | 3.2 | 0.00 | 0.00 | 0.00 | 78 | 1010.3 |
| 20260506071959 | 15 | 207 | 0.0 | 3.2 | 0.00 | 0.00 | 0.00 | 77 | 1010.6 |
| 20260506071456 | 15 | 178 | 1.6 | 3.2 | 0.00 | 0.00 | 0.00 | 77 | 1010.6 |
| 20260506070953 | 15 | 170 | 0.0 | 3.2 | 0.00 | 0.00 | 0.00 | 78 | 1010.6 |
| 20260506070450 | 15 | 174 | 3.2 | 3.2 | 0.00 | 0.00 | 0.00 | 77 | 1010.6 |
| 20260506062428 | 16 | 182 | 3.2 | 3.2 | 0.00 | 0.00 | 0.00 | 75 | 1010.3 |
| 20260506061923 | 16 | 185 | 1.6 | 1.6 | 0.00 | 0.00 | 0.00 | 75 | 1010.2 |
| 20260506061420 | 16 | 166 | 3.2 | 4.8 | 0.00 | 0.00 | 0.00 | 75 | 1010.1 |
| 20260506060918 | 16 | 197 | 4.8 | 4.8 | 0.00 | 0.00 | 0.00 | 75 | 1010.3 |
| 20260506060416 | 16 | 198 | 1.6 | 3.2 | 0.00 | 0.00 | 0.00 | 74 | 1010.2 |
| 20260506051348 | 16 | 173 | 3.2 | 4.8 | 0.00 | 0.00 | 0.00 | 72 | 1010.4 |
| 20260506050845 | 16 | 279 | 1.6 | 6.4 | 0.00 | 0.00 | 0.00 | 72 | 1010.3 |
| 20260506050343 | 16 | 211 | 3.2 | 4.8 | 0.00 | 0.00 | 0.00 | 72 | 1010.6 |
| 20260506044833 | 17 | 168 | 4.8 | 12.9 | 0.00 | 0.00 | 0.00 | 70 | 1010.7 |
| 20260506044331 | 16 | 198 | 4.8 | 4.8 | 0.00 | 0.00 | 0.00 | 70 | 1010.6 |
| 20260506043828 | 17 | 157 | 1.6 | 4.8 | 0.00 | 0.00 | 0.00 | 69 | 1010.6 |
| 20260506043325 | 17 | 185 | 1.6 | 4.8 | 0.00 | 0.00 | 0.00 | 68 | 1010.5 |
| 20260506042823 | 17 | 201 | 3.2 | 6.4 | 0.00 | 0.00 | 0.00 | 68 | 1010.5 |
| 20260506042322 | 17 | 189 | 1.6 | 4.8 | 0.00 | 0.00 | 0.00 | 68 | 1010.5 |
| 20260506041821 | 17 | 178 | 3.2 | 4.8 | 0.00 | 0.00 | 0.00 | 68 | 1010.5 |
| 20260506041317 | 17 | 151 | 6.4 | 9.7 | 0.00 | 0.00 | 0.00 | 67 | 1010.5 |
| 20260506040814 | 17 | 188 | 3.2 | 6.4 | 0.00 | 0.00 | 0.00 | 67 | 1010.3 |
| 20260506040312 | 17 | 179 | 3.2 | 9.7 | 0.00 | 0.00 | 0.00 | 68 | 1010.4 |
| 20260506035808 | 17 | 181 | 3.2 | 4.8 | 0.00 | 0.00 | 0.00 | 67 | 1010.5 |
| 20260506035306 | 17 | 153 | 3.2 | 4.8 | 0.00 | 0.00 | 0.00 | 66 | 1010.5 |
| 20260506034802 | 17 | 182 | 4.8 | 6.4 | 0.00 | 0.00 | 0.00 | 66 | 1010.5 |
| 20260506034259 | 17 | 222 | 3.2 | 4.8 | 0.00 | 0.00 | 0.00 | 67 | 1010.4 |
| 20260506033756 | 17 | 243 | 1.6 | 4.8 | 0.00 | 0.00 | 0.00 | 66 | 1010.7 |
| 20260506033253 | 17 | 212 | 1.6 | 4.8 | 0.00 | 0.00 | 0.00 | 66 | 1010.6 |
| 20260506032750 | 17 | 197 | 3.2 | 6.4 | 0.00 | 0.00 | 0.00 | 66 | 1010.8 |
| 20260506032247 | 17 | 269 | 0.0 | 4.8 | 0.00 | 0.00 | 0.00 | 66 | 1010.7 |
| 20260506031744 | 17 | 162 | 3.2 | 4.8 | 0.00 | 0.00 | 0.00 | 66 | 1010.6 |
| 20260506031241 | 17 | 155 | 8.0 | 11.3 | 0.00 | 0.00 | 0.00 | 66 | 1010.5 |
| 20260506030739 | 17 | 153 | 3.2 | 4.8 | 0.00 | 0.00 | 0.00 | 66 | 1010.6 |
| 20260506030236 | 17 | 163 | 1.6 | 3.2 | 0.00 | 0.00 | 0.00 | 66 | 1010.7 |
| 20260506025733 | 17 | 193 | 0.0 | 6.4 | 0.00 | 0.00 | 0.00 | 66 | 1010.6 |
| 20260506025230 | 17 | 11 | 3.2 | 4.8 | 0.00 | 0.00 | 0.00 | 66 | 1010.5 |
| 20260506024726 | 17 | 189 | 1.6 | 4.8 | 0.00 | 0.00 | 0.00 | 65 | 1010.5 |
| 20260506024223 | 17 | 188 | 3.2 | 6.4 | 0.00 | 0.00 | 0.00 | 65 | 1010.5 |
| 20260506023719 | 17 | 198 | 3.2 | 4.8 | 0.00 | 0.00 | 0.00 | 65 | 1010.6 |
| 20260506023217 | 17 | 192 | 4.8 | 4.8 | 0.00 | 0.00 | 0.00 | 65 | 1010.4 |
| 20260506022713 | 17 | 191 | 1.6 | 3.2 | 0.00 | 0.00 | 0.00 | 64 | 1010.5 |
| 20260506022211 | 17 | 142 | 4.8 | 9.7 | 0.00 | 0.00 | 0.00 | 64 | 1010.4 |
| 20260506021709 | 17 | 196 | 1.6 | 4.8 | 0.00 | 0.00 | 0.00 | 65 | 1010.6 |
| 20260506021206 | 17 | 262 | 4.8 | 6.4 | 0.00 | 0.00 | 0.00 | 63 | 1010.3 |
| 20260506020703 | 17 | 173 | 3.2 | 6.4 | 0.00 | 0.00 | 0.00 | 64 | 1010.6 |
| 20260506020201 | 17 | 174 | 1.6 | 1.6 | 0.00 | 0.00 | 0.00 | 64 | 1010.4 |
| 20260506015658 | 17 | 171 | 6.4 | 6.4 | 0.00 | 0.00 | 0.00 | 62 | 1010.4 |
| 20260506015155 | 17 | 134 | 4.8 | 6.4 | 0.00 | 0.00 | 0.00 | 63 | 1010.4 |
| 20260506014652 | 17 | 168 | 1.6 | 3.2 | 0.00 | 0.00 | 0.00 | 63 | 1010.6 |
| 20260506014148 | 17 | 140 | 4.8 | 4.8 | 0.00 | 0.00 | 0.00 | 62 | 1010.2 |
| 20260506013646 | 17 | 227 | 3.2 | 4.8 | 0.00 | 0.00 | 0.00 | 62 | 1010.3 |
| 20260506013143 | 17 | 100 | 1.6 | 3.2 | 0.00 | 0.00 | 0.00 | 62 | 1010.2 |
| 20260506012639 | 18 | 214 | 1.6 | 1.6 | 0.00 | 0.00 | 0.00 | 62 | 1010.2 |
| 20260506012136 | 18 | 145 | 3.2 | 6.4 | 0.00 | 0.00 | 0.00 | 61 | 1010.1 |
| 20260506011633 | 18 | 194 | 3.2 | 3.2 | 0.00 | 0.00 | 0.00 | 60 | 1010.1 |
| 20260506011129 | 18 | 308 | 1.6 | 4.8 | 0.00 | 0.00 | 0.00 | 60 | 1009.9 |
| 20260506010628 | 18 | 204 | 3.2 | 3.2 | 0.00 | 0.00 | 0.00 | 60 | 1010.1 |
| 20260506010125 | 18 | 180 | 4.8 | 4.8 | 0.00 | 0.00 | 0.00 | 60 | 1009.9 |
| 20260506005622 | 18 | 169 | 1.6 | 3.2 | 0.00 | 0.00 | 0.00 | 60 | 1009.7 |
| 20260506005118 | 18 | 334 | 3.2 | 4.8 | 0.00 | 0.00 | 0.00 | 59 | 1009.6 |
| 20260506004615 | 18 | 184 | 3.2 | 3.2 | 0.00 | 0.00 | 0.00 | 60 | 1009.7 |
| 20260506004112 | 18 | 258 | 4.8 | 9.7 | 0.00 | 0.00 | 0.00 | 59 | 1009.7 |
| 20260506003608 | 19 | 191 | 3.2 | 11.3 | 0.00 | 0.00 | 0.00 | 59 | 1009.5 |
| 20260506003104 | 19 | 154 | 3.2 | 6.4 | 0.00 | 0.00 | 0.00 | 59 | 1009.4 |
| 20260506002600 | 19 | 195 | 3.2 | 11.3 | 0.00 | 0.00 | 0.00 | 58 | 1009.4 |
| 20260506002057 | 19 | 190 | 1.6 | 3.2 | 0.00 | 0.00 | 0.00 | 59 | 1009.4 |
| 20260506001553 | 19 | 204 | 4.8 | 11.3 | 0.00 | 0.00 | 0.00 | 58 | 1009.4 |
| 20260506001050 | 20 | 225 | 3.2 | 3.2 | 0.00 | 0.00 | 0.00 | 59 | 1009.3 |